TimeEST,TemperatureF,Dew PointF,Humidity,Sea Level PressureIn,VisibilityMPH,Wind Direction,Wind SpeedMPH,Gust SpeedMPH,PrecipitationIn,Events,Conditions,WindDirDegrees,DateUTC
12:14 AM,37.2,35.6,94,29.62,10.0,ESE,11.5,-,N/A,,Overcast,120,2012-12-16 05:14:00
12:35 AM,37.4,35.6,93,29.61,10.0,ESE,10.4,-,N/A,,Overcast,110,2012-12-16 05:35:00
12:54 AM,37.4,35.6,93,29.61,10.0,ESE,10.4,16.1,N/A,,Overcast,120,2012-12-16 05:54:00
1:15 AM,37.0,35.6,95,29.59,7.0,ESE,10.4,-,N/A,,Overcast,110,2012-12-16 06:15:00
1:55 AM,37.0,35.8,95,29.58,5.0,ESE,9.2,-,N/A,,Light Drizzle,110,2012-12-16 06:55:00
2:15 AM,37.0,36.0,96,29.57,5.0,ESE,10.4,-,N/A,,Overcast,110,2012-12-16 07:15:00
2:35 AM,37.4,36.5,97,29.57,5.0,ESE,8.1,-,N/A,,Light Drizzle,110,2012-12-16 07:35:00
2:55 AM,37.4,36.5,97,29.57,7.0,ESE,9.2,-,N/A,Rain,Light Rain,110,2012-12-16 07:55:00
3:14 AM,37.4,36.5,97,29.57,4.0,ESE,8.1,-,N/A,Rain,Light Rain,110,2012-12-16 08:14:00
3:54 AM,37.6,36.9,97,29.57,7.0,ESE,6.9,-,N/A,,Light Drizzle,110,2012-12-16 08:54:00
4:15 AM,37.6,36.9,97,29.56,5.0,ESE,6.9,-,N/A,Rain,Light Rain,110,2012-12-16 09:15:00
4:34 AM,37.6,36.9,97,29.55,5.0,ESE,5.8,-,N/A,,Overcast,110,2012-12-16 09:34:00
4:55 AM,37.6,37.0,98,29.55,4.0,ESE,5.8,-,N/A,,Overcast,110,2012-12-16 09:55:00
5:14 AM,37.6,37.0,98,29.55,5.0,ESE,5.8,-,N/A,,Overcast,110,2012-12-16 10:14:00
5:35 AM,37.8,37.4,99,29.55,5.0,ESE,3.5,-,N/A,,Overcast,110,2012-12-16 10:35:00
5:55 AM,37.8,37.4,99,29.55,5.0,ESE,5.8,-,N/A,,Overcast,120,2012-12-16 10:55:00
6:15 AM,37.9,37.4,98,29.55,5.0,ESE,3.5,-,N/A,,Overcast,120,2012-12-16 11:15:00
6:35 AM,38.3,37.6,97,29.55,5.0,ESE,3.5,-,N/A,,Overcast,110,2012-12-16 11:35:00
6:55 AM,38.3,37.6,97,29.55,4.0,ESE,4.6,-,N/A,,Overcast,120,2012-12-16 11:55:00
7:14 AM,38.3,37.8,98,29.55,1.0,ESE,3.5,-,N/A,,Overcast,120,2012-12-16 12:14:00
7:35 AM,38.3,37.8,98,29.55,0.5,Calm,Calm,-,N/A,Fog,Fog,0,2012-12-16 12:35:00
8:14 AM,38.3,37.8,98,29.55,0.5,Calm,Calm,-,N/A,Fog,Fog,0,2012-12-16 13:14:00
8:34 AM,38.3,37.9,99,29.55,0.2,Calm,Calm,-,N/A,Fog,Fog,0,2012-12-16 13:34:00
8:54 AM,38.5,38.3,99,29.55,0.2,Calm,Calm,-,N/A,Fog,Fog,0,2012-12-16 13:54:00
9:14 AM,38.7,38.3,99,29.56,0.2,Calm,Calm,-,N/A,Fog,Fog,0,2012-12-16 14:14:00
9:35 AM,39.2,38.7,98,29.56,0.2,East,3.5,-,N/A,Fog,Fog,100,2012-12-16 14:35:00
9:55 AM,39.2,38.7,98,29.56,0.2,SE,3.5,-,N/A,Fog,Fog,140,2012-12-16 14:55:00
10:15 AM,39.4,39.2,99,29.56,0.2,SSE,3.5,-,N/A,Fog,Fog,160,2012-12-16 15:15:00
10:35 AM,40.3,40.1,99,29.56,0.2,SSE,3.5,-,N/A,Fog,Fog,150,2012-12-16 15:35:00
10:55 AM,42.1,41.9,99,29.56,0.5,South,5.8,-,N/A,Fog,Fog,170,2012-12-16 15:55:00
11:15 AM,42.8,42.4,99,29.56,0.5,South,3.5,-,N/A,Fog,Fog,180,2012-12-16 16:15:00
11:35 AM,43.7,43.3,99,29.55,2.5,SSW,5.8,-,N/A,,Overcast,210,2012-12-16 16:35:00
11:54 AM,43.7,43.3,99,29.55,1.2,South,3.5,-,N/A,,Overcast,180,2012-12-16 16:54:00
12:15 PM,43.7,43.5,99,29.55,1.8,SSW,3.5,-,N/A,,Overcast,200,2012-12-16 17:15:00
12:35 PM,44.1,43.7,99,29.55,2.5,Calm,Calm,-,N/A,,Overcast,0,2012-12-16 17:35:00
12:55 PM,44.1,43.7,99,29.54,3.0,Calm,Calm,-,N/A,,Overcast,0,2012-12-16 17:55:00
1:15 PM,44.1,43.7,99,29.54,4.0,South,3.5,-,N/A,,Overcast,190,2012-12-16 18:15:00
1:35 PM,44.1,43.7,99,29.54,4.0,SSW,3.5,-,N/A,,Overcast,200,2012-12-16 18:35:00
1:55 PM,44.4,43.9,98,29.54,5.0,South,3.5,-,N/A,,Overcast,190,2012-12-16 18:55:00
2:15 PM,44.2,43.9,99,29.53,5.0,SW,3.5,-,N/A,,Overcast,220,2012-12-16 19:15:00
2:35 PM,44.2,43.7,98,29.53,5.0,SSW,4.6,-,N/A,,Overcast,200,2012-12-16 19:35:00
2:55 PM,44.4,43.7,97,29.53,4.0,South,3.5,-,N/A,,Overcast,190,2012-12-16 19:55:00
3:15 PM,44.6,43.7,97,29.53,5.0,SSW,4.6,-,N/A,,Overcast,210,2012-12-16 20:15:00
3:35 PM,44.6,43.7,97,29.53,5.0,SW,4.6,-,N/A,,Overcast,220,2012-12-16 20:35:00
3:55 PM,44.6,43.7,97,29.53,5.0,SW,3.5,-,N/A,,Overcast,230,2012-12-16 20:55:00
4:15 PM,44.2,43.3,97,29.54,4.0,WSW,4.6,-,N/A,,Overcast,240,2012-12-16 21:15:00
4:35 PM,44.1,43.2,97,29.54,3.0,WSW,3.5,-,N/A,,Overcast,250,2012-12-16 21:35:00
5:15 PM,43.3,42.8,98,29.55,4.0,WSW,5.8,-,N/A,,Overcast,250,2012-12-16 22:15:00
5:35 PM,43.2,42.8,99,29.55,4.0,WSW,3.5,-,N/A,,Overcast,250,2012-12-16 22:35:00
5:55 PM,43.0,42.4,98,29.55,1.0,Calm,Calm,-,N/A,,Overcast,0,2012-12-16 22:55:00
6:14 PM,43.0,42.6,99,29.55,0.8,WSW,3.5,-,N/A,Rain,Light Rain,250,2012-12-16 23:14:00
6:35 PM,43.2,42.8,99,29.55,2.0,WSW,3.5,-,N/A,,Light Drizzle,250,2012-12-16 23:35:00
6:54 PM,43.0,42.8,99,29.55,3.0,WSW,4.6,-,N/A,,Overcast,250,2012-12-16 23:54:00
7:15 PM,43.0,42.8,99,29.56,4.0,West,5.8,-,N/A,,Overcast,260,2012-12-17 00:15:00
7:34 PM,42.8,42.3,98,29.57,7.0,West,6.9,-,N/A,,Overcast,260,2012-12-17 00:34:00
7:55 PM,42.4,41.9,98,29.57,10.0,WSW,5.8,-,N/A,,Overcast,250,2012-12-17 00:55:00
8:15 PM,42.3,41.5,97,29.58,4.0,West,8.1,-,N/A,Rain,Light Rain,260,2012-12-17 01:15:00
8:35 PM,41.9,41.0,97,29.58,7.0,West,9.2,-,N/A,Rain,Light Rain,260,2012-12-17 01:35:00
8:55 PM,41.5,40.8,97,29.58,5.0,West,9.2,-,N/A,Rain,Light Rain,260,2012-12-17 01:55:00
9:15 PM,41.2,40.5,97,29.58,5.0,West,6.9,-,N/A,Rain,Rain,260,2012-12-17 02:15:00
9:34 PM,41.2,40.5,97,29.58,5.0,West,9.2,-,N/A,,Light Drizzle,260,2012-12-17 02:34:00
9:55 PM,41.0,40.5,98,29.59,4.0,West,11.5,-,N/A,Rain,Light Rain,270,2012-12-17 02:55:00
10:14 PM,40.6,40.1,98,29.59,3.0,West,10.4,-,N/A,Rain,Light Rain,260,2012-12-17 03:14:00
10:35 PM,41.0,40.1,97,29.59,5.0,West,9.2,-,N/A,Rain,Light Rain,260,2012-12-17 03:35:00
10:54 PM,40.8,39.9,97,29.59,10.0,West,8.1,-,N/A,,Overcast,270,2012-12-17 03:54:00
11:15 PM,40.6,39.7,97,29.59,10.0,West,9.2,-,N/A,,Overcast,270,2012-12-17 04:15:00
11:35 PM,40.6,39.6,96,29.59,10.0,West,9.2,-,N/A,,Overcast,260,2012-12-17 04:35:00
11:55 PM,40.5,39.2,95,29.59,10.0,West,10.4,-,N/A,,Overcast,260,2012-12-17 04:55:00